Wind_Speed
61 59 58 56 53 51 52 53 53 52 52 50 48 48 47 45 44 42 42 44 45 45 42 41 41 41 42 42 42 44 44 44 45 45 46 47 48 48 47 45 42 39
63 62 60 57 54 52 53 54 54 52 51 50 48 47 46 45 44 43 43 44 46 46 44 42 42 42 43 43 43 44 45 45 46 46 47 48 48 47 45 42 39 36
63 63 62 59 56 54 53 54 53 52 52 50 48 47 46 45 45 45 45 45 47 48 46 43 43 43 43 44 45 45 46 46 47 48 48 48 47 44 42 39 35 34
63 63 63 61 59 57 55 54 53 52 52 52 49 47 46 46 46 46 46 47 48 50 49 46 44 44 45 46 47 46 46 47 48 49 49 47 44 42 39 36 33 32
62 62 62 62 61 59 57 55 54 53 53 53 52 49 48 47 48 48 48 48 50 51 51 48 46 46 47 47 48 48 47 48 49 49 47 44 41 39 37 33 31 30
63 62 62 63 62 61 59 57 56 55 55 55 54 51 50 49 49 50 50 50 52 54 54 51 48 48 48 48 49 50 49 48 49 48 44 40 39 37 34 31 30 30
67 64 64 64 63 63 61 59 58 57 57 57 56 54 52 50 51 53 52 52 54 56 56 54 50 49 49 49 50 50 49 48 47 45 40 38 37 34 31 30 30 31
70 68 66 64 63 63 63 61 59 58 59 59 58 56 54 52 53 55 54 53 55 57 57 55 52 50 50 50 50 50 49 48 45 41 38 36 35 32 29 29 29 31
70 69 67 64 62 62 63 63 60 59 60 61 60 58 55 52 53 55 55 53 55 57 57 54 53 51 50 50 50 49 49 47 42 38 36 36 33 30 28 28 29 31
67 66 66 65 62 62 63 62 61 60 60 61 59 56 54 51 51 53 53 52 54 56 56 53 52 51 50 50 50 48 48 45 38 35 35 35 31 28 27 28 30 31
70 67 64 62 59 60 61 61 59 58 58 57 55 53 51 49 48 50 50 50 52 55 54 52 51 51 50 50 48 47 46 42 35 33 35 33 30 28 28 29 30 31
68 67 64 62 60 60 60 59 57 55 54 53 51 50 49 47 46 47 48 48 50 53 52 50 50 49 49 49 48 46 44 38 33 33 34 31 29 28 29 30 31 31
62 62 63 63 62 62 62 58 56 54 53 51 49 48 48 47 45 45 46 45 48 51 51 49 48 47 47 47 47 45 41 36 33 34 34 31 29 29 30 30 31 32
62 62 63 62 60 61 61 58 55 54 53 50 48 48 48 48 46 45 45 44 46 50 50 48 46 46 46 47 48 44 39 34 33 34 33 31 30 30 30 31 31 33
67 66 67 64 59 56 55 54 53 54 53 50 49 49 49 48 47 45 44 44 45 48 49 48 46 45 46 47 48 43 37 34 34 34 32 31 31 31 31 31 32 33
70 69 67 65 61 56 52 50 51 51 51 49 48 49 49 48 46 44 43 43 45 46 48 47 46 45 46 48 47 42 36 35 35 33 32 32 31 31 31 31 32 34
68 67 65 62 60 57 52 50 49 49 48 48 47 48 48 46 43 42 42 43 44 45 46 47 46 46 46 47 47 40 36 36 35 33 32 32 31 31 31 31 32 34
65 64 61 58 56 55 52 51 50 49 47 47 46 47 47 44 40 40 42 43 44 44 45 46 46 46 47 47 45 39 36 37 35 33 33 32 32 32 31 31 32 34
63 61 58 55 55 53 51 51 51 50 49 48 47 48 47 42 39 40 42 43 43 43 44 44 45 46 47 46 44 39 36 37 35 33 33 33 33 33 31 32 33 34
61 59 55 54 54 53 53 53 52 51 51 50 50 50 48 42 39 41 44 44 43 43 42 42 44 46 47 45 43 38 36 37 36 33 33 33 34 33 32 33 34 34
61 57 54 53 54 55 55 54 53 52 53 53 53 52 50 45 42 43 45 45 44 43 41 41 44 47 46 45 43 39 37 38 36 34 33 33 34 34 33 34 36 35
62 58 54 52 53 55 55 53 53 53 55 55 55 55 54 48 44 44 47 47 46 44 41 41 46 47 45 45 43 39 38 38 37 35 34 33 35 35 33 35 36 36
64 60 54 51 52 56 56 55 55 55 57 58 57 57 57 52 47 47 50 50 49 45 42 43 47 48 45 45 44 40 38 38 38 37 35 35 36 35 34 35 37 38
65 61 56 51 52 56 57 57 58 58 59 61 60 60 59 56 52 51 52 52 51 47 44 44 48 48 46 45 45 41 39 38 38 38 37 37 38 36 35 36 38 40
64 61 56 53 55 58 60 61 62 61 62 63 62 62 61 59 55 54 54 55 53 50 46 45 49 50 47 46 46 42 39 39 40 39 38 39 39 37 35 36 39 42
64 61 56 54 56 59 60 62 63 62 62 63 64 64 64 62 58 56 57 57 56 53 49 47 50 51 49 47 46 43 41 41 40 39 39 40 40 38 36 37 40 42
Wind_Direction
250 251 251 252 252 253 254 254 254 255 257 260 262 265 267 269 271 273 275 277 278 279 280 282 283 284 285 286 288 290 291 292 294 296 298 300 302 303 303 302 302 303
250 252 253 253 252 252 253 254 256 257 259 260 262 264 266 268 271 273 275 276 278 279 280 281 282 283 285 286 287 289 290 292 294 296 299 300 303 303 301 300 301 301
249 250 254 255 254 253 252 253 256 258 261 261 262 263 265 269 271 273 274 275 276 278 279 280 281 282 284 285 286 288 289 292 294 296 299 301 303 302 299 299 300 299
248 248 251 254 255 256 255 255 256 258 260 262 262 263 266 269 270 272 273 274 275 277 278 279 280 281 283 284 286 287 289 291 294 296 299 302 302 299 297 298 297 296
248 248 250 252 254 256 257 257 258 259 260 261 262 263 265 268 270 271 272 273 275 276 278 279 280 281 282 284 285 287 289 291 293 296 299 302 299 295 296 296 294 295
251 252 252 253 253 254 256 257 258 260 261 262 263 264 265 267 270 271 272 273 274 276 277 279 280 281 281 283 285 287 289 291 293 296 300 299 295 293 294 294 292 294
250 252 253 253 252 253 255 256 257 259 260 262 264 265 266 267 269 271 272 272 273 275 277 278 279 279 280 282 284 286 289 291 293 296 298 295 291 292 292 290 292 295
249 251 252 252 252 253 254 255 257 258 260 262 264 265 267 268 269 270 271 271 272 274 276 277 278 278 279 281 283 285 289 290 293 296 295 291 289 290 289 289 292 294
249 250 251 253 254 254 255 256 257 258 259 262 264 266 267 268 268 269 270 270 271 273 275 276 277 277 279 280 282 286 288 289 292 295 291 288 288 287 287 289 292 294
249 250 251 253 255 255 255 256 256 257 259 261 264 266 267 267 267 267 268 269 269 271 273 275 276 277 278 279 282 285 286 287 292 291 286 286 285 283 285 289 292 295
248 248 249 251 254 255 255 255 256 257 258 260 263 265 265 265 265 266 267 267 267 269 271 273 274 276 277 279 281 283 283 287 290 286 282 283 281 281 284 288 292 296
245 246 246 249 251 254 255 255 256 257 258 260 262 263 264 264 264 264 265 266 265 267 270 272 273 274 276 278 279 280 282 287 287 281 279 278 277 279 284 288 292 295
242 244 246 249 251 252 253 254 256 257 258 259 261 262 263 263 263 263 264 264 265 266 269 271 272 273 275 276 277 278 282 285 282 277 276 274 273 278 283 288 291 293
240 245 248 250 251 251 252 253 255 257 258 259 260 261 262 262 262 262 263 264 264 265 268 270 271 272 273 274 275 277 281 281 276 273 273 272 273 278 284 288 291 292
241 245 248 249 250 251 253 253 254 255 257 259 260 260 261 262 262 262 263 263 262 264 266 268 269 270 271 272 274 277 279 276 271 269 269 269 273 279 284 288 292 293
242 244 246 247 248 250 253 254 255 255 256 258 259 259 260 261 262 263 262 262 261 262 264 267 267 267 268 270 273 276 276 271 268 267 267 268 273 279 283 288 293 295
240 242 243 245 246 248 252 255 256 257 257 257 258 258 259 261 262 262 262 261 261 262 264 265 266 266 267 269 272 274 271 267 267 266 265 268 273 278 282 288 293 297
239 241 242 243 245 248 251 253 256 259 259 258 258 258 259 260 260 261 261 261 262 263 264 266 266 266 267 269 271 272 268 265 265 264 264 268 273 276 281 287 293 297
239 240 242 243 245 248 250 253 257 260 260 258 257 257 258 259 259 259 260 261 263 265 266 268 267 266 267 269 271 270 265 263 263 262 263 268 272 276 281 286 291 296
238 240 241 243 245 247 251 255 257 258 258 258 257 257 258 257 257 258 260 262 264 266 268 269 267 266 268 270 271 268 263 262 262 260 262 267 271 276 280 285 290 294
238 240 241 243 245 246 250 255 257 256 255 256 256 257 258 256 255 258 260 262 263 265 267 267 265 267 270 271 271 268 262 261 261 260 262 266 271 276 280 285 290 293
238 239 239 240 243 245 247 253 257 256 254 255 256 257 258 257 256 257 259 261 262 264 267 267 266 269 272 272 271 267 262 261 261 261 262 266 271 276 280 285 290 294
237 238 238 237 241 245 248 252 256 256 254 254 255 256 258 258 257 256 258 260 263 265 266 266 267 270 272 271 270 267 262 261 262 262 263 266 270 274 280 286 290 294
234 236 236 235 238 243 247 250 255 258 256 254 255 256 258 259 258 258 259 261 263 264 265 266 267 269 271 271 270 268 263 261 263 263 264 267 271 275 281 286 289 292
233 234 234 233 234 239 245 250 255 257 256 254 255 256 258 259 259 259 260 262 263 263 264 265 266 268 269 270 270 269 265 262 263 264 265 268 272 276 281 286 289 293
232 233 233 232 234 239 244 249 252 256 257 256 256 257 258 260 260 260 260 261 262 263 263 264 265 267 268 269 269 269 266 263 263 265 266 269 273 277 282 287 291 295
Height
10713 10717 10720 10724 10728 10730 10731 10732 10735 10737 10739 10741 10743 10743 10743 10743 10744 10745 10745 10744 10743 10744 10746 10746 10745 10745 10745 10744 10743 10742 10741 10740 10739 10738 10736 10734 10732 10729 10726 10724 10722 10720
10709 10711 10715 10719 10723 10725 10726 10727 10730 10733 10735 10738 10739 10739 10739 10739 10740 10741 10741 10740 10739 10739 10741 10742 10741 10740 10740 10739 10739 10737 10736 10735 10734 10732 10731 10730 10728 10725 10722 10720 10718 10716
10705 10708 10710 10713 10716 10719 10721 10723 10726 10729 10731 10733 10735 10735 10735 10736 10736 10737 10736 10736 10735 10735 10736 10737 10736 10736 10735 10735 10734 10733 10732 10730 10729 10728 10726 10725 10723 10721 10718 10717 10715 10712
10701 10703 10705 10707 10710 10713 10716 10720 10723 10724 10726 10728 10730 10732 10732 10732 10732 10732 10732 10731 10731 10730 10731 10732 10732 10731 10731 10730 10729 10729 10728 10726 10724 10723 10722 10721 10719 10716 10714 10713 10711 10709
10694 10698 10701 10703 10705 10708 10711 10715 10718 10720 10721 10723 10726 10728 10728 10728 10728 10728 10728 10727 10726 10726 10726 10727 10728 10727 10726 10725 10724 10723 10723 10722 10720 10719 10718 10717 10714 10712 10710 10709 10707 10705
10689 10693 10696 10698 10701 10703 10706 10710 10713 10715 10717 10718 10721 10724 10724 10724 10724 10724 10724 10723 10722 10721 10721 10722 10723 10722 10721 10720 10719 10718 10718 10717 10716 10715 10714 10712 10710 10708 10707 10704 10703 10701
10685 10688 10691 10693 10696 10699 10702 10705 10709 10711 10712 10713 10716 10718 10719 10721 10720 10719 10719 10719 10717 10716 10716 10717 10718 10717 10716 10716 10714 10713 10713 10712 10712 10711 10710 10708 10706 10704 10703 10701 10699 10697
10680 10682 10685 10688 10691 10694 10696 10699 10703 10706 10707 10708 10711 10713 10715 10717 10716 10714 10715 10714 10713 10711 10711 10712 10713 10712 10712 10711 10710 10709 10708 10707 10707 10706 10705 10703 10701 10700 10699 10697 10695 10693
10674 10677 10679 10682 10686 10689 10691 10693 10697 10700 10701 10703 10705 10707 10709 10712 10712 10710 10710 10710 10708 10706 10706 10708 10708 10708 10707 10706 10705 10704 10703 10703 10703 10702 10700 10699 10698 10696 10695 10693 10691 10690
10667 10671 10674 10677 10681 10684 10685 10688 10691 10694 10696 10698 10700 10702 10704 10706 10707 10706 10705 10705 10704 10702 10702 10703 10703 10703 10702 10701 10700 10700 10699 10698 10699 10699 10696 10695 10694 10693 10691 10689 10688 10687
10659 10664 10669 10672 10675 10677 10679 10682 10685 10689 10692 10693 10695 10697 10698 10700 10702 10701 10701 10700 10699 10697 10697 10698 10699 10698 10697 10696 10696 10695 10694 10695 10695 10694 10692 10691 10690 10689 10688 10686 10685 10684
10651 10656 10662 10666 10669 10671 10672 10676 10680 10683 10686 10689 10690 10692 10693 10695 10697 10697 10696 10695 10694 10693 10693 10694 10694 10694 10693 10692 10691 10691 10691 10691 10691 10690 10688 10688 10687 10685 10684 10683 10682 10681
10645 10650 10655 10660 10662 10664 10666 10670 10674 10678 10681 10684 10685 10687 10688 10690 10692 10692 10691 10691 10690 10688 10688 10690 10690 10690 10689 10687 10686 10686 10687 10688 10687 10685 10684 10684 10683 10682 10681 10680 10679 10677
10641 10645 10649 10653 10656 10658 10661 10665 10669 10672 10675 10678 10680 10682 10682 10684 10686 10687 10687 10687 10686 10684 10684 10685 10685 10685 10684 10682 10681 10682 10684 10684 10683 10681 10680 10680 10679 10678 10677 10676 10675 10674
10636 10640 10644 10648 10651 10654 10657 10661 10664 10667 10669 10673 10675 10677 10677 10678 10680 10682 10683 10683 10682 10680 10680 10680 10681 10680 10679 10677 10676 10678 10680 10679 10678 10677 10677 10676 10675 10675 10674 10673 10671 10670
10632 10636 10639 10642 10646 10650 10653 10656 10659 10662 10664 10667 10670 10671 10672 10673 10675 10677 10678 10678 10677 10677 10676 10676 10676 10675 10674 10673 10672 10674 10675 10675 10674 10673 10673 10672 10672 10671 10670 10669 10668 10667
10627 10630 10634 10638 10642 10645 10648 10651 10653 10656 10660 10662 10665 10666 10667 10668 10671 10672 10673 10672 10672 10672 10672 10671 10671 10670 10669 10669 10669 10670 10671 10670 10669 10669 10669 10668 10668 10667 10666 10665 10664 10663
10620 10624 10629 10634 10637 10640 10643 10645 10648 10651 10655 10658 10660 10661 10662 10664 10667 10667 10668 10667 10667 10668 10667 10667 10666 10666 10665 10664 10665 10666 10667 10665 10665 10665 10665 10665 10664 10663 10663 10662 10661 10660
10615 10619 10624 10629 10632 10634 10637 10640 10644 10647 10651 10653 10655 10655 10657 10661 10663 10663 10663 10663 10663 10663 10663 10662 10661 10661 10660 10660 10661 10662 10662 10661 10661 10661 10661 10661 10660 10659 10659 10658 10657 10656
10610 10615 10620 10624 10626 10627 10631 10636 10640 10644 10646 10648 10649 10650 10653 10656 10658 10658 10658 10658 10659 10658 10658 10658 10657 10655 10655 10656 10656 10658 10658 10657 10657 10657 10657 10657 10656 10656 10655 10654 10653 10652
10605 10611 10615 10618 10620 10622 10627 10632 10636 10640 10642 10643 10644 10645 10647 10651 10653 10654 10654 10654 10654 10654 10654 10654 10652 10650 10650 10651 10652 10653 10653 10653 10653 10653 10653 10653 10652 10652 10652 10651 10649 10648
10601 10606 10610 10613 10615 10617 10621 10627 10632 10636 10638 10638 10640 10641 10642 10645 10649 10650 10649 10649 10649 10649 10650 10649 10647 10645 10646 10647 10647 10649 10649 10648 10649 10649 10649 10649 10649 10648 10648 10647 10645 10644
10595 10600 10605 10610 10611 10612 10617 10622 10627 10630 10633 10634 10635 10636 10637 10640 10644 10645 10644 10643 10644 10645 10646 10645 10642 10641 10642 10643 10643 10644 10644 10644 10645 10645 10645 10645 10644 10644 10644 10643 10641 10640
10589 10594 10599 10605 10607 10608 10612 10617 10621 10625 10628 10630 10631 10632 10633 10635 10638 10639 10639 10639 10640 10640 10641 10640 10638 10636 10638 10639 10638 10639 10640 10640 10641 10641 10641 10640 10640 10640 10641 10639 10637 10635
10582 10588 10594 10599 10601 10603 10607 10612 10616 10620 10624 10625 10626 10627 10628 10630 10633 10634 10634 10634 10634 10634 10636 10636 10634 10632 10634 10635 10634 10635 10636 10636 10636 10637 10637 10636 10635 10635 10636 10635 10633 10631
10576 10582 10588 10593 10596 10599 10604 10608 10612 10616 10619 10621 10622 10622 10623 10625 10628 10629 10628 10628 10628 10629 10631 10632 10629 10627 10629 10630 10630 10631 10631 10631 10632 10633 10633 10632 10631 10631 10631 10630 10629 10626